Time,TemperatureF,DewpointF,PressureIn,WindDirection,WindDirectionDegrees,WindSpeedMPH,WindSpeedGustMPH,Humidity,HourlyPrecipIn,Conditions,Clouds,dailyrainin,SolarRadiationWatts/m^2,SoftwareType,DateUTC
2013-04-01 00:05:00,52.2,49.4,29.85,WSW,238,0.0,2.0,90,0.00,RA,SCT,0.00,0.0,WeatherDisplay:10.37,2013-04-01 04:05:00,
2013-04-01 00:10:00,52.3,49.5,29.85,WSW,238,0.0,1.0,90,0.00,,SCT,0.00,0.0,WeatherDisplay:10.37,2013-04-01 04:10:00,
2013-04-01 00:15:00,52.4,49.9,29.85,WSW,238,0.0,1.0,91,0.00,,SCT,0.00,0.0,WeatherDisplay:10.37,2013-04-01 04:15:00,
2013-04-01 00:20:00,52.5,50.0,29.84,WSW,238,0.0,0.0,91,0.00,,SCT,0.00,0.0,WeatherDisplay:10.37,2013-04-01 04:20:00,
2013-04-01 00:25:00,52.7,50.1,29.84,WSW,238,0.0,0.0,91,0.00,,SCT,0.00,0.0,WeatherDisplay:10.37,2013-04-01 04:25:00,
2013-04-01 00:30:00,52.9,50.3,29.84,WSW,238,0.0,0.0,91,0.00,,SCT,0.00,0.0,WeatherDisplay:10.37,2013-04-01 04:30:00,
2013-04-01 00:35:00,53.0,50.4,29.84,WSW,238,0.0,0.0,91,0.00,,SCT,0.00,0.0,WeatherDisplay:10.37,2013-04-01 04:35:00,
2013-04-01 00:40:00,53.1,50.5,29.84,WSW,238,0.0,0.0,91,0.00,,SCT,0.00,0.0,WeatherDisplay:10.37,2013-04-01 04:40:00,
2013-04-01 00:45:00,53.1,50.6,29.84,WSW,238,0.0,0.0,91,0.00,,SCT,0.00,0.0,WeatherDisplay:10.37,2013-04-01 04:45:00,
2013-04-01 00:50:00,53.3,50.7,29.84,WSW,238,0.0,0.0,91,0.00,,SCT,0.00,0.0,WeatherDisplay:10.37,2013-04-01 04:50:00,
2013-04-01 00:55:00,53.3,50.7,29.84,WSW,238,0.0,0.0,91,0.00,,SCT,0.00,0.0,WeatherDisplay:10.37,2013-04-01 04:55:00,
2013-04-01 01:00:00,53.3,50.7,29.84,WSW,238,0.0,0.0,91,0.00,,SCT,0.00,0.0,WeatherDisplay:10.37,2013-04-01 05:00:00,
2013-04-01 01:10:00,53.3,50.7,29.83,WSW,238,0.0,0.0,91,0.00,,SCT,0.00,0.0,WeatherDisplay:10.37,2013-04-01 05:10:00,
2013-04-01 01:15:00,53.4,50.8,29.84,WSW,238,0.0,0.0,91,0.00,,SCT,0.00,0.0,WeatherDisplay:10.37,2013-04-01 05:15:00,
2013-04-01 01:20:00,53.4,50.8,29.83,WSW,238,0.0,0.0,91,0.00,,SCT,0.00,0.0,WeatherDisplay:10.37,2013-04-01 05:20:00,
2013-04-01 01:25:00,53.3,50.7,29.83,WSW,238,0.0,0.0,91,0.00,,SCT,0.00,0.0,WeatherDisplay:10.37,2013-04-01 05:25:00,
2013-04-01 01:30:00,53.3,50.7,29.83,WSW,238,0.0,0.0,91,0.00,,SCT,0.00,0.0,WeatherDisplay:10.37,2013-04-01 05:30:00,
2013-04-01 01:35:00,53.2,50.6,29.83,WSW,238,0.0,0.0,91,0.00,,SCT,0.00,0.0,WeatherDisplay:10.37,2013-04-01 05:35:00,
2013-04-01 01:40:00,53.2,50.6,29.83,WSW,238,0.0,1.0,91,0.00,,SCT,0.00,0.0,WeatherDisplay:10.37,2013-04-01 05:40:00,
2013-04-01 01:45:00,53.1,50.5,29.83,WSW,238,0.0,1.0,91,0.00,,SCT,0.00,0.0,WeatherDisplay:10.37,2013-04-01 05:45:00,
2013-04-01 01:50:00,53.0,50.4,29.83,WSW,238,0.0,0.0,91,0.00,,SCT,0.00,0.0,WeatherDisplay:10.37,2013-04-01 05:50:00,
2013-04-01 01:55:00,52.9,50.3,29.84,WSW,238,0.0,1.0,91,0.00,,SCT,0.00,0.0,WeatherDisplay:10.37,2013-04-01 05:55:00,
2013-04-01 02:00:00,52.8,50.3,29.84,WSW,238,0.0,1.0,91,0.00,,SCT,0.00,0.0,WeatherDisplay:10.37,2013-04-01 06:00:00,
2013-04-01 02:05:00,52.8,50.2,29.84,WSW,238,0.0,0.0,91,0.00,,SCT,0.00,0.0,WeatherDisplay:10.37,2013-04-01 06:05:00,
2013-04-01 02:10:00,52.8,50.2,29.84,WSW,238,0.0,0.0,91,0.00,,SCT,0.00,0.0,WeatherDisplay:10.37,2013-04-01 06:10:00,
2013-04-01 02:15:00,52.7,50.1,29.84,WSW,238,0.0,0.0,91,0.00,,SCT,0.00,0.0,WeatherDisplay:10.37,2013-04-01 06:15:00,
2013-04-01 02:20:00,52.7,50.1,29.84,WSW,238,0.0,0.0,91,0.00,,SCT,0.00,0.0,WeatherDisplay:10.37,2013-04-01 06:20:00,
2013-04-01 02:25:00,52.6,50.0,29.84,WSW,238,0.0,0.0,91,0.00,,SCT,0.00,0.0,WeatherDisplay:10.37,2013-04-01 06:25:00,
2013-04-01 02:30:00,52.6,50.0,29.83,WSW,238,0.0,0.0,91,0.00,,SCT,0.00,0.0,WeatherDisplay:10.37,2013-04-01 06:30:00,
2013-04-01 02:35:00,52.6,50.0,29.83,WSW,238,0.0,0.0,91,0.00,,SCT,0.00,0.0,WeatherDisplay:10.37,2013-04-01 06:35:00,
2013-04-01 02:40:00,52.6,50.0,29.83,WSW,238,0.0,0.0,91,0.00,,SCT,0.00,0.0,WeatherDisplay:10.37,2013-04-01 06:40:00,
2013-04-01 02:45:00,52.5,49.9,29.83,WSW,238,0.0,0.0,91,0.00,,SCT,0.00,0.0,WeatherDisplay:10.37,2013-04-01 06:45:00,
2013-04-01 02:50:00,52.5,49.9,29.84,WSW,238,0.0,0.0,91,0.00,,SCT,0.00,0.0,WeatherDisplay:10.37,2013-04-01 06:50:00,
2013-04-01 02:55:00,52.4,49.8,29.83,WSW,238,0.0,1.0,91,0.00,,SCT,0.00,0.0,WeatherDisplay:10.37,2013-04-01 06:55:00,
2013-04-01 03:00:00,52.3,49.8,29.83,WSW,238,0.0,1.0,91,0.00,,SCT,0.00,0.0,WeatherDisplay:10.37,2013-04-01 07:00:00,
2013-04-01 03:05:00,52.3,49.8,29.83,WSW,238,0.0,0.0,91,0.00,,SCT,0.00,0.0,WeatherDisplay:10.37,2013-04-01 07:05:00,
2013-04-01 03:10:00,52.2,49.7,29.83,WSW,238,0.0,1.0,91,0.00,,SCT,0.00,0.0,WeatherDisplay:10.37,2013-04-01 07:10:00,
2013-04-01 03:15:00,52.1,49.6,29.83,WSW,238,0.0,1.0,91,0.00,,SCT,0.00,0.0,WeatherDisplay:10.37,2013-04-01 07:15:00,
2013-04-01 03:20:00,52.1,49.6,29.83,WSW,238,0.0,0.0,91,0.00,,SCT,0.00,0.0,WeatherDisplay:10.37,2013-04-01 07:20:00,
2013-04-01 03:30:00,52.1,49.6,29.83,WSW,238,0.0,0.0,91,0.00,,SCT,0.00,0.0,WeatherDisplay:10.37,2013-04-01 07:30:00,
2013-04-01 03:35:00,52.1,49.6,29.82,WSW,238,1.0,2.0,91,0.00,,SCT,0.00,0.0,WeatherDisplay:10.37,2013-04-01 07:35:00,
2013-04-01 03:40:00,52.1,49.6,29.83,WSW,238,0.0,2.0,91,0.00,,SCT,0.00,0.0,WeatherDisplay:10.37,2013-04-01 07:40:00,
2013-04-01 03:45:00,52.0,49.5,29.83,WSW,238,0.0,1.0,91,0.00,,SCT,0.00,0.0,WeatherDisplay:10.37,2013-04-01 07:45:00,
2013-04-01 03:50:00,52.0,49.5,29.83,WSW,238,0.0,1.0,91,0.00,,SCT,0.00,0.0,WeatherDisplay:10.37,2013-04-01 07:50:00,
2013-04-01 03:55:00,52.0,49.5,29.83,WSW,238,0.0,1.0,91,0.00,,SCT,0.00,0.0,WeatherDisplay:10.37,2013-04-01 07:55:00,
2013-04-01 04:05:00,52.0,49.5,29.83,WSW,238,0.0,1.0,91,0.00,,SCT,0.00,0.0,WeatherDisplay:10.37,2013-04-01 08:05:00,
2013-04-01 04:10:00,52.1,49.5,29.83,WSW,238,0.0,1.0,91,0.00,,SCT,0.00,0.0,WeatherDisplay:10.37,2013-04-01 08:10:00,
2013-04-01 04:15:00,52.0,49.5,29.83,WSW,238,0.0,0.0,91,0.00,,SCT,0.00,0.0,WeatherDisplay:10.37,2013-04-01 08:15:00,
2013-04-01 04:20:00,51.9,49.4,29.83,WSW,238,0.0,1.0,91,0.00,,SCT,0.00,0.0,WeatherDisplay:10.37,2013-04-01 08:20:00,
2013-04-01 04:25:00,51.8,49.3,29.83,WSW,238,0.0,1.0,91,0.00,,SCT,0.00,0.0,WeatherDisplay:10.37,2013-04-01 08:25:00,
2013-04-01 04:35:00,51.6,49.1,29.84,WSW,238,0.0,1.0,91,0.00,,SCT,0.00,0.0,WeatherDisplay:10.37,2013-04-01 08:35:00,
2013-04-01 04:40:00,51.5,49.0,29.84,WSW,238,0.0,0.0,91,0.01,RA,SCT,0.01,0.0,WeatherDisplay:10.37,2013-04-01 08:40:00,
2013-04-01 04:45:00,51.4,48.8,29.84,WSW,238,0.0,1.0,91,0.00,RA,SCT,0.01,0.0,WeatherDisplay:10.37,2013-04-01 08:45:00,
2013-04-01 04:50:00,51.2,48.7,29.83,WSW,238,0.0,0.0,91,0.00,,SCT,0.01,0.0,WeatherDisplay:10.37,2013-04-01 08:50:00,
2013-04-01 04:55:00,51.1,48.6,29.84,WSW,238,0.0,0.0,91,0.00,,SCT,0.01,0.0,WeatherDisplay:10.37,2013-04-01 08:55:00,
2013-04-01 05:00:00,50.9,48.4,29.84,WSW,238,0.0,0.0,91,0.00,,SCT,0.01,0.0,WeatherDisplay:10.37,2013-04-01 09:00:00,
2013-04-01 05:05:00,50.7,48.2,29.84,WSW,238,0.0,0.0,91,0.00,,SCT,0.01,0.0,WeatherDisplay:10.37,2013-04-01 09:05:00,
2013-04-01 05:10:00,50.4,47.9,29.84,WSW,238,0.0,1.0,91,0.00,,SCT,0.01,0.0,WeatherDisplay:10.37,2013-04-01 09:10:00,
2013-04-01 05:20:00,49.9,47.4,29.84,WSW,238,0.0,1.0,91,0.00,,SCT,0.01,0.0,WeatherDisplay:10.37,2013-04-01 09:20:00,
2013-04-01 05:25:00,49.7,47.2,29.84,WSW,238,0.0,1.0,91,0.00,,SCT,0.01,0.0,WeatherDisplay:10.37,2013-04-01 09:25:00,
2013-04-01 05:30:00,49.6,47.1,29.84,WSW,238,0.0,0.0,91,0.00,,SCT,0.01,0.0,WeatherDisplay:10.37,2013-04-01 09:30:00,
2013-04-01 05:35:00,49.5,46.9,29.84,WSW,238,0.0,0.0,91,0.00,,SCT,0.01,0.0,WeatherDisplay:10.37,2013-04-01 09:35:00,
2013-04-01 05:40:00,49.3,46.8,29.84,WSW,238,0.0,1.0,91,0.00,,SCT,0.01,0.0,WeatherDisplay:10.37,2013-04-01 09:40:00,
2013-04-01 05:50:00,49.2,46.7,29.85,WSW,238,0.0,0.0,91,0.00,,SCT,0.01,0.0,WeatherDisplay:10.37,2013-04-01 09:50:00,
2013-04-01 05:55:00,49.0,46.5,29.85,WSW,238,0.0,0.0,91,0.00,,SCT,0.01,0.0,WeatherDisplay:10.37,2013-04-01 09:55:00,
2013-04-01 06:00:00,48.8,46.3,29.85,WSW,238,0.0,0.0,91,0.00,,SCT,0.01,0.0,WeatherDisplay:10.37,2013-04-01 10:00:00,
2013-04-01 06:05:00,48.6,46.1,29.86,WSW,238,0.0,0.0,91,0.00,,SCT,0.01,0.0,WeatherDisplay:10.37,2013-04-01 10:05:00,
2013-04-01 06:10:00,48.4,45.9,29.86,WSW,238,0.0,0.0,91,0.00,,SCT,0.01,0.0,WeatherDisplay:10.37,2013-04-01 10:10:00,
2013-04-01 06:15:00,48.2,45.7,29.86,WSW,238,0.0,0.0,91,0.00,,SCT,0.01,0.0,WeatherDisplay:10.37,2013-04-01 10:15:00,
2013-04-01 06:30:00,46.9,44.4,29.87,WSW,238,0.0,0.0,91,0.00,,SCT,0.01,0.0,WeatherDisplay:10.37,2013-04-01 10:30:00,
2013-04-01 06:35:00,46.6,44.1,29.86,WSW,238,0.0,1.0,91,0.00,,SCT,0.01,0.0,WeatherDisplay:10.37,2013-04-01 10:35:00,
2013-04-01 06:40:00,46.4,43.9,29.87,WSW,238,0.0,2.0,91,0.00,,SCT,0.01,0.0,WeatherDisplay:10.37,2013-04-01 10:40:00,
2013-04-01 06:45:00,46.1,43.6,29.87,WSW,238,1.0,2.0,91,0.00,,SCT,0.01,0.0,WeatherDisplay:10.37,2013-04-01 10:45:00,
2013-04-01 06:50:00,45.7,43.0,29.87,WSW,238,0.0,1.0,90,0.00,,SCT,0.01,0.0,WeatherDisplay:10.37,2013-04-01 10:50:00,
2013-04-01 06:55:00,45.4,42.7,29.87,WSW,238,0.0,0.0,90,0.00,,SCT,0.01,0.0,WeatherDisplay:10.37,2013-04-01 10:55:00,
2013-04-01 07:00:00,45.3,42.8,29.87,WSW,238,0.0,0.0,91,0.00,,SCT,0.01,0.0,WeatherDisplay:10.37,2013-04-01 11:00:00,
2013-04-01 07:05:00,45.2,42.7,29.88,WSW,238,0.0,0.0,91,0.00,,SCT,0.01,0.0,WeatherDisplay:10.37,2013-04-01 11:05:00,
2013-04-01 07:10:00,45.0,42.5,29.88,WSW,238,0.0,0.0,91,0.00,,SCT,0.01,0.0,WeatherDisplay:10.37,2013-04-01 11:10:00,
2013-04-01 07:15:00,44.9,42.4,29.88,WSW,238,0.0,0.0,91,0.00,,SCT,0.01,0.0,WeatherDisplay:10.37,2013-04-01 11:15:00,
2013-04-01 07:20:00,44.5,42.1,29.88,WSW,238,0.0,0.0,91,0.00,,SCT,0.01,5.0,WeatherDisplay:10.37,2013-04-01 11:20:00,
2013-04-01 07:30:00,44.1,41.6,29.88,WSW,238,0.0,1.0,91,0.00,,SCT,0.01,11.0,WeatherDisplay:10.37,2013-04-01 11:30:00,
2013-04-01 07:35:00,43.8,41.1,29.89,WSW,238,0.0,1.0,90,0.00,BKN,SCT,0.01,14.0,WeatherDisplay:10.37,2013-04-01 11:35:00,
2013-04-01 07:40:00,43.7,41.0,29.89,WSW,238,0.0,0.0,90,0.00,BKN,SCT,0.01,16.0,WeatherDisplay:10.37,2013-04-01 11:40:00,
2013-04-01 07:45:00,43.6,41.1,29.89,WSW,238,0.0,0.0,91,0.00,BKN,SCT,0.01,19.0,WeatherDisplay:10.37,2013-04-01 11:45:00,
2013-04-01 07:50:00,43.5,41.1,29.89,WSW,237,0.0,1.0,91,0.00,BKN,SCT,0.01,21.0,WeatherDisplay:10.37,2013-04-01 11:50:00,
2013-04-01 08:00:00,43.7,41.2,29.90,SSW,194,0.0,1.0,91,0.00,BKN,SCT,0.01,26.0,WeatherDisplay:10.37,2013-04-01 12:00:00,
2013-04-01 08:05:00,44.1,41.7,29.90,SSW,193,0.0,0.0,91,0.00,,SCT,0.01,26.0,WeatherDisplay:10.37,2013-04-01 12:05:00,
2013-04-01 08:10:00,44.6,42.2,29.90,SSW,193,0.0,1.0,91,0.00,,SCT,0.01,28.0,WeatherDisplay:10.37,2013-04-01 12:10:00,
2013-04-01 08:20:00,45.5,43.1,29.90,SSW,210,0.0,0.0,91,0.00,,SCT,0.01,32.0,WeatherDisplay:10.37,2013-04-01 12:20:00,
2013-04-01 08:30:00,46.9,44.7,29.90,SSE,165,0.0,0.0,92,0.00,,SCT,0.01,33.0,WeatherDisplay:10.37,2013-04-01 12:30:00,
2013-04-01 08:35:00,47.7,45.5,29.90,SSE,155,0.0,0.0,92,0.00,,SCT,0.01,35.0,WeatherDisplay:10.37,2013-04-01 12:35:00,
2013-04-01 08:40:00,48.5,46.3,29.90,SSE,155,0.0,0.0,92,0.00,,SCT,0.01,35.0,WeatherDisplay:10.37,2013-04-01 12:40:00,
2013-04-01 08:45:00,49.3,47.1,29.90,SSE,155,0.0,1.0,92,0.00,,SCT,0.01,37.0,WeatherDisplay:10.37,2013-04-01 12:45:00,
2013-04-01 08:50:00,49.8,47.6,29.90,SSE,155,0.0,1.0,92,0.00,,SCT,0.01,26.0,WeatherDisplay:10.37,2013-04-01 12:50:00,
2013-04-01 08:55:00,50.1,47.9,29.90,SSE,155,0.0,1.0,92,0.00,,SCT,0.01,181.0,WeatherDisplay:10.37,2013-04-01 12:55:00,
2013-04-01 09:00:00,50.3,48.1,29.90,SSE,157,0.0,2.0,92,0.00,SCT,SCT,0.01,304.0,WeatherDisplay:10.37,2013-04-01 13:00:00,
2013-04-01 09:05:00,50.5,48.2,29.90,SSE,157,0.0,2.0,92,0.00,CLR,SCT,0.01,320.0,WeatherDisplay:10.37,2013-04-01 13:05:00,
2013-04-01 09:10:00,50.6,48.4,29.89,South,170,0.0,2.0,92,0.00,CLR,SCT,0.01,336.0,WeatherDisplay:10.37,2013-04-01 13:10:00,
2013-04-01 09:15:00,51.0,48.8,29.89,SSE,167,0.0,2.0,92,0.00,CLR,SCT,0.01,355.0,WeatherDisplay:10.37,2013-04-01 13:15:00,
2013-04-01 09:20:00,51.4,49.2,29.89,SSE,156,1.0,2.0,92,0.00,CLR,SCT,0.01,376.0,WeatherDisplay:10.37,2013-04-01 13:20:00,
2013-04-01 09:25:00,51.7,49.5,29.89,SSE,160,2.0,4.0,92,0.00,CLR,SCT,0.01,399.0,WeatherDisplay:10.37,2013-04-01 13:25:00,
2013-04-01 09:30:00,52.2,50.0,29.89,SSE,162,1.0,3.0,92,0.00,CLR,SCT,0.01,420.0,WeatherDisplay:10.37,2013-04-01 13:30:00,
2013-04-01 09:35:00,52.9,50.4,29.89,SSW,202,1.0,5.0,91,0.00,CLR,SCT,0.01,439.0,WeatherDisplay:10.37,2013-04-01 13:35:00,
2013-04-01 09:40:00,53.7,50.0,29.89,WSW,249,1.0,3.0,87,0.00,CLR,SCT,0.01,464.0,WeatherDisplay:10.37,2013-04-01 13:40:00,
2013-04-01 09:45:00,54.5,48.5,29.89,West,264,1.0,3.0,80,0.00,CLR,SCT,0.01,492.0,WeatherDisplay:10.37,2013-04-01 13:45:00,
2013-04-01 09:50:00,55.4,46.9,29.89,West,264,1.0,4.0,73,0.00,CLR,SCT,0.01,513.0,WeatherDisplay:10.37,2013-04-01 13:50:00,
2013-04-01 09:55:00,56.3,47.0,29.89,NNW,343,1.0,4.0,71,0.00,CLR,SCT,0.01,533.0,WeatherDisplay:10.37,2013-04-01 13:55:00,
2013-04-01 10:05:00,57.9,45.0,29.89,NW,321,2.0,4.0,62,0.00,CLR,SCT,0.01,570.0,WeatherDisplay:10.37,2013-04-01 14:05:00,
2013-04-01 10:10:00,58.6,45.2,29.90,West,279,3.0,7.0,61,0.00,CLR,SCT,0.01,582.0,WeatherDisplay:10.37,2013-04-01 14:10:00,
2013-04-01 10:15:00,59.0,45.6,29.90,West,271,3.0,6.0,61,0.00,CLR,SCT,0.01,599.0,WeatherDisplay:10.37,2013-04-01 14:15:00,
2013-04-01 10:20:00,59.5,44.3,29.89,WNW,284,6.0,9.0,57,0.00,CLR,SCT,0.01,615.0,WeatherDisplay:10.37,2013-04-01 14:20:00,
2013-04-01 10:25:00,60.0,43.7,29.90,West,274,5.0,8.0,55,0.00,CLR,SCT,0.01,629.0,WeatherDisplay:10.37,2013-04-01 14:25:00,
2013-04-01 10:30:00,60.3,43.6,29.89,WSW,258,6.0,10.0,54,0.00,CLR,SCT,0.01,645.0,WeatherDisplay:10.37,2013-04-01 14:30:00,
2013-04-01 10:35:00,60.6,44.4,29.90,WSW,258,3.0,9.0,55,0.00,CLR,SCT,0.01,661.0,WeatherDisplay:10.37,2013-04-01 14:35:00,
2013-04-01 10:40:00,60.9,44.6,29.90,West,275,3.0,11.0,55,0.00,CLR,SCT,0.01,677.0,WeatherDisplay:10.37,2013-04-01 14:40:00,
2013-04-01 10:45:00,61.1,44.3,29.90,West,279,3.0,12.0,54,0.00,CLR,SCT,0.01,689.0,WeatherDisplay:10.37,2013-04-01 14:45:00,
2013-04-01 10:50:00,61.3,44.5,29.90,West,279,5.0,9.0,54,0.00,CLR,SCT,0.01,705.0,WeatherDisplay:10.37,2013-04-01 14:50:00,
2013-04-01 10:55:00,61.5,45.7,29.90,West,269,3.0,6.0,56,0.00,CLR,SCT,0.01,719.0,WeatherDisplay:10.37,2013-04-01 14:55:00,
2013-04-01 11:00:00,61.8,44.5,29.90,West,261,3.0,7.0,53,0.00,CLR,SCT,0.01,731.0,WeatherDisplay:10.37,2013-04-01 15:00:00,
2013-04-01 11:05:00,62.2,42.8,29.90,West,278,6.0,12.0,49,0.00,CLR,SCT,0.01,745.0,WeatherDisplay:10.37,2013-04-01 15:05:00,
2013-04-01 11:10:00,62.5,42.5,29.90,WNW,288,6.0,12.0,48,0.00,CLR,SCT,0.01,758.0,WeatherDisplay:10.37,2013-04-01 15:10:00,
2013-04-01 11:15:00,62.8,43.3,29.89,WNW,290,5.0,9.0,49,0.00,CLR,SCT,0.01,772.0,WeatherDisplay:10.37,2013-04-01 15:15:00,
2013-04-01 11:20:00,63.2,43.2,29.89,WNW,282,5.0,9.0,48,0.00,CLR,SCT,0.01,780.0,WeatherDisplay:10.37,2013-04-01 15:20:00,
2013-04-01 11:25:00,63.6,44.1,29.90,West,270,3.0,9.0,49,0.00,CLR,SCT,0.01,791.0,WeatherDisplay:10.37,2013-04-01 15:25:00,
2013-04-01 11:30:00,63.9,44.4,29.90,West,268,6.0,10.0,49,0.00,CLR,SCT,0.01,807.0,WeatherDisplay:10.37,2013-04-01 15:30:00,
2013-04-01 11:35:00,64.0,42.8,29.90,West,277,6.0,10.0,46,0.00,CLR,SCT,0.01,817.0,WeatherDisplay:10.37,2013-04-01 15:35:00,
2013-04-01 11:40:00,64.0,43.4,29.90,West,281,3.0,14.0,47,0.00,CLR,SCT,0.01,830.0,WeatherDisplay:10.37,2013-04-01 15:40:00,
2013-04-01 11:45:00,63.9,43.8,29.90,WNW,303,3.0,12.0,48,0.00,CLR,SCT,0.01,837.0,WeatherDisplay:10.37,2013-04-01 15:45:00,
2013-04-01 11:50:00,64.1,44.5,29.90,WNW,295,3.0,9.0,49,0.00,CLR,SCT,0.01,847.0,WeatherDisplay:10.37,2013-04-01 15:50:00,
2013-04-01 11:55:00,64.4,43.7,29.89,WSW,254,6.0,14.0,47,0.00,CLR,SCT,0.01,854.0,WeatherDisplay:10.37,2013-04-01 15:55:00,
2013-04-01 12:00:00,64.5,43.8,29.90,West,265,6.0,12.0,47,0.00,CLR,SCT,0.01,865.0,WeatherDisplay:10.37,2013-04-01 16:00:00,
2013-04-01 12:05:00,64.5,43.8,29.89,West,269,8.0,12.0,47,0.00,CLR,SCT,0.01,874.0,WeatherDisplay:10.37,2013-04-01 16:05:00,
2013-04-01 12:10:00,64.5,43.8,29.89,West,263,6.0,16.0,47,0.00,CLR,SCT,0.01,879.0,WeatherDisplay:10.37,2013-04-01 16:10:00,
2013-04-01 12:15:00,64.7,44.0,29.89,West,260,9.0,15.0,47,0.00,CLR,SCT,0.01,886.0,WeatherDisplay:10.37,2013-04-01 16:15:00,
2013-04-01 12:20:00,64.9,44.8,29.89,WSW,246,6.0,10.0,48,0.00,CLR,SCT,0.01,896.0,WeatherDisplay:10.37,2013-04-01 16:20:00,
2013-04-01 12:25:00,65.3,46.2,29.89,SW,232,2.0,7.0,50,0.00,CLR,SCT,0.01,900.0,WeatherDisplay:10.37,2013-04-01 16:25:00,
2013-04-01 12:30:00,65.7,45.5,29.89,SW,235,3.0,8.0,48,0.00,CLR,SCT,0.01,909.0,WeatherDisplay:10.37,2013-04-01 16:30:00,
2013-04-01 12:35:00,66.1,43.5,29.89,West,265,7.0,14.0,44,0.00,CLR,SCT,0.01,921.0,WeatherDisplay:10.37,2013-04-01 16:35:00,
2013-04-01 12:40:00,66.1,42.3,29.89,West,268,9.0,14.0,42,0.00,CLR,SCT,0.01,926.0,WeatherDisplay:10.37,2013-04-01 16:40:00,
2013-04-01 12:45:00,66.1,41.7,29.88,West,268,1.0,8.0,41,0.00,CLR,SCT,0.01,926.0,WeatherDisplay:10.37,2013-04-01 16:45:00,
2013-04-01 12:50:00,66.3,42.5,29.88,West,277,9.0,20.0,42,0.00,CLR,SCT,0.01,939.0,WeatherDisplay:10.37,2013-04-01 16:50:00,
2013-04-01 12:55:00,66.5,41.4,29.88,West,268,7.0,20.0,40,0.00,CLR,SCT,0.01,939.0,WeatherDisplay:10.37,2013-04-01 16:55:00,
2013-04-01 13:00:00,66.7,42.9,29.88,West,266,7.0,15.0,42,0.00,CLR,SCT,0.01,930.0,WeatherDisplay:10.37,2013-04-01 17:00:00,
2013-04-01 13:05:00,67.0,41.2,29.88,WSW,252,7.0,15.0,39,0.00,CLR,SCT,0.01,947.0,WeatherDisplay:10.37,2013-04-01 17:05:00,
2013-04-01 13:10:00,67.2,43.3,29.88,WSW,250,6.0,18.0,42,0.00,CLR,SCT,0.01,974.0,WeatherDisplay:10.37,2013-04-01 17:10:00,
2013-04-01 13:15:00,67.3,40.8,29.88,WSW,256,8.0,20.0,38,0.00,FEW,SCT,0.01,976.0,WeatherDisplay:10.37,2013-04-01 17:15:00,
2013-04-01 13:25:00,67.4,42.9,29.87,West,276,7.0,17.0,41,0.00,CLR,SCT,0.01,986.0,WeatherDisplay:10.37,2013-04-01 17:25:00,
2013-04-01 13:35:00,68.1,41.5,29.87,West,265,8.0,17.0,38,0.00,CLR,SCT,0.01,1051.0,WeatherDisplay:10.37,2013-04-01 17:35:00,
2013-04-01 13:40:00,68.3,41.7,29.87,West,273,7.0,12.0,38,0.00,CLR,SCT,0.01,1146.0,WeatherDisplay:10.37,2013-04-01 17:40:00,
2013-04-01 13:45:00,68.5,42.5,29.87,West,269,6.0,12.0,39,0.00,CLR,SCT,0.01,1053.0,WeatherDisplay:10.37,2013-04-01 17:45:00,
2013-04-01 13:50:00,68.6,39.8,29.87,WSW,245,8.0,17.0,35,0.00,CLR,SCT,0.01,302.0,WeatherDisplay:10.37,2013-04-01 17:50:00,
2013-04-01 13:55:00,68.1,41.6,29.87,WSW,252,8.0,13.0,38,0.00,FEW,SCT,0.01,1058.0,WeatherDisplay:10.37,2013-04-01 17:55:00,
2013-04-01 14:00:00,68.2,40.2,29.86,West,269,5.0,13.0,36,0.00,FEW,SCT,0.01,1104.0,WeatherDisplay:10.37,2013-04-01 18:00:00,
2013-04-01 14:05:00,68.5,41.9,29.87,West,266,7.0,15.0,38,0.00,CLR,SCT,0.01,1148.0,WeatherDisplay:10.37,2013-04-01 18:05:00,
2013-04-01 14:10:00,68.3,40.3,29.87,WSW,255,7.0,15.0,36,0.00,FEW,SCT,0.01,234.0,WeatherDisplay:10.37,2013-04-01 18:10:00,
2013-04-01 14:15:00,67.6,39.7,29.87,West,261,6.0,12.0,36,0.00,BKN,SCT,0.01,248.0,WeatherDisplay:10.37,2013-04-01 18:15:00,
2013-04-01 14:20:00,66.8,40.4,29.87,West,281,7.0,10.0,38,0.00,BKN,SCT,0.01,197.0,WeatherDisplay:10.37,2013-04-01 18:20:00,
2013-04-01 14:25:00,66.5,41.4,29.87,West,280,5.0,12.0,40,0.00,BKN,SCT,0.01,248.0,WeatherDisplay:10.37,2013-04-01 18:25:00,
2013-04-01 14:30:00,66.8,41.7,29.87,West,274,10.0,15.0,40,0.00,SCT,SCT,0.01,1136.0,WeatherDisplay:10.37,2013-04-01 18:30:00,
2013-04-01 14:35:00,67.1,40.6,29.86,West,266,7.0,12.0,38,0.00,FEW,SCT,0.01,1123.0,WeatherDisplay:10.37,2013-04-01 18:35:00,
2013-04-01 14:40:00,67.7,43.1,29.86,West,268,6.0,12.0,41,0.00,CLR,SCT,0.01,1179.0,WeatherDisplay:10.37,2013-04-01 18:40:00,
2013-04-01 14:45:00,68.3,43.0,29.86,West,276,9.0,14.0,40,0.00,CLR,SCT,0.01,1171.0,WeatherDisplay:10.37,2013-04-01 18:45:00,
2013-04-01 14:50:00,68.1,42.2,29.86,West,270,8.0,17.0,39,0.00,SCT,SCT,0.01,288.0,WeatherDisplay:10.37,2013-04-01 18:50:00,
2013-04-01 14:55:00,67.6,41.7,29.86,West,271,6.0,13.0,39,0.00,BKN,SCT,0.01,313.0,WeatherDisplay:10.37,2013-04-01 18:55:00,
2013-04-01 15:00:00,67.2,42.0,29.86,West,272,5.0,12.0,40,0.00,BKN,SCT,0.01,359.0,WeatherDisplay:10.37,2013-04-01 19:00:00,
2013-04-01 15:05:00,67.2,41.4,29.86,West,268,8.0,13.0,39,0.00,SCT,SCT,0.01,513.0,WeatherDisplay:10.37,2013-04-01 19:05:00,
2013-04-01 15:10:00,67.3,42.1,29.86,West,267,5.0,8.0,40,0.00,SCT,SCT,0.01,262.0,WeatherDisplay:10.37,2013-04-01 19:10:00,
2013-04-01 15:15:00,67.0,41.2,29.86,West,272,7.0,12.0,39,0.00,BKN,SCT,0.01,257.0,WeatherDisplay:10.37,2013-04-01 19:15:00,
2013-04-01 15:20:00,66.6,41.5,29.86,West,271,8.0,14.0,40,0.00,BKN,SCT,0.01,269.0,WeatherDisplay:10.37,2013-04-01 19:20:00,
2013-04-01 15:25:00,66.4,41.3,29.86,West,269,6.0,12.0,40,0.00,BKN,SCT,0.01,408.0,WeatherDisplay:10.37,2013-04-01 19:25:00,
2013-04-01 15:30:00,66.3,40.6,29.86,West,269,8.0,12.0,39,0.00,BKN,SCT,0.01,250.0,WeatherDisplay:10.37,2013-04-01 19:30:00,
2013-04-01 15:35:00,66.1,41.1,29.86,West,270,5.0,13.0,40,0.00,BKN,SCT,0.01,292.0,WeatherDisplay:10.37,2013-04-01 19:35:00,
2013-04-01 15:40:00,66.0,40.3,29.86,West,275,7.0,13.0,39,0.00,BKN,SCT,0.01,241.0,WeatherDisplay:10.37,2013-04-01 19:40:00,
2013-04-01 15:45:00,65.7,39.4,29.86,West,275,10.0,17.0,38,0.00,BKN,SCT,0.01,220.0,WeatherDisplay:10.37,2013-04-01 19:45:00,
2013-04-01 15:55:00,65.4,40.4,29.86,West,269,8.0,14.0,40,0.00,BKN,SCT,0.01,239.0,WeatherDisplay:10.37,2013-04-01 19:55:00,
2013-04-01 16:05:00,65.6,40.6,29.86,West,270,8.0,12.0,40,0.00,BKN,SCT,0.01,225.0,WeatherDisplay:10.37,2013-04-01 20:05:00,
2013-04-01 16:10:00,65.6,40.6,29.86,West,275,10.0,17.0,40,0.00,BKN,SCT,0.01,220.0,WeatherDisplay:10.37,2013-04-01 20:10:00,
2013-04-01 16:15:00,65.4,40.4,29.86,West,278,9.0,15.0,40,0.00,BKN,SCT,0.01,236.0,WeatherDisplay:10.37,2013-04-01 20:15:00,
2013-04-01 16:20:00,65.3,39.7,29.86,West,261,13.0,18.0,39,0.00,BKN,SCT,0.01,211.0,WeatherDisplay:10.37,2013-04-01 20:20:00,
2013-04-01 16:25:00,65.2,39.6,29.86,WSW,247,14.0,20.0,39,0.00,BKN,SCT,0.01,244.0,WeatherDisplay:10.37,2013-04-01 20:25:00,
2013-04-01 16:30:00,65.2,40.9,29.86,WSW,254,10.0,18.0,41,0.00,BKN,SCT,0.01,253.0,WeatherDisplay:10.37,2013-04-01 20:30:00,
2013-04-01 16:35:00,65.3,40.3,29.86,West,263,13.0,20.0,40,0.00,BKN,SCT,0.01,265.0,WeatherDisplay:10.37,2013-04-01 20:35:00,
2013-04-01 16:40:00,65.4,41.1,29.87,West,268,9.0,21.0,41,0.00,BKN,SCT,0.01,257.0,WeatherDisplay:10.37,2013-04-01 20:40:00,
2013-04-01 16:45:00,65.4,41.7,29.86,West,269,12.0,20.0,42,0.00,SCT,SCT,0.01,812.0,WeatherDisplay:10.37,2013-04-01 20:45:00,
2013-04-01 16:50:00,65.9,41.5,29.86,West,273,8.0,14.0,41,0.00,FEW,SCT,0.01,821.0,WeatherDisplay:10.37,2013-04-01 20:50:00,
2013-04-01 16:55:00,66.3,41.9,29.86,West,279,9.0,16.0,41,0.00,CLR,SCT,0.01,731.0,WeatherDisplay:10.37,2013-04-01 20:55:00,
2013-04-01 17:00:00,66.2,42.4,29.86,West,280,9.0,17.0,42,0.00,CLR,SCT,0.01,399.0,WeatherDisplay:10.37,2013-04-01 21:00:00,
2013-04-01 17:05:00,65.8,41.5,29.86,WNW,286,9.0,20.0,41,0.00,FEW,SCT,0.01,497.0,WeatherDisplay:10.37,2013-04-01 21:05:00,
2013-04-01 17:15:00,65.0,41.9,29.86,West,275,7.0,13.0,43,0.00,SCT,SCT,0.01,218.0,WeatherDisplay:10.37,2013-04-01 21:15:00,
2013-04-01 17:20:00,64.9,41.9,29.86,WNW,283,6.0,16.0,43,0.00,SCT,SCT,0.01,158.0,WeatherDisplay:10.37,2013-04-01 21:20:00,
2013-04-01 17:25:00,64.7,42.3,29.86,WNW,289,6.0,12.0,44,0.00,BKN,SCT,0.01,185.0,WeatherDisplay:10.37,2013-04-01 21:25:00,
2013-04-01 17:30:00,64.6,42.7,29.87,WNW,282,8.0,16.0,45,0.00,BKN,SCT,0.01,186.0,WeatherDisplay:10.37,2013-04-01 21:30:00,
2013-04-01 17:35:00,64.4,42.0,29.87,West,278,6.0,16.0,44,0.00,SCT,SCT,0.01,434.0,WeatherDisplay:10.37,2013-04-01 21:35:00,
2013-04-01 17:40:00,64.7,42.3,29.87,West,275,7.0,12.0,44,0.00,SCT,SCT,0.01,211.0,WeatherDisplay:10.37,2013-04-01 21:40:00,
2013-04-01 17:45:00,64.8,42.4,29.86,West,267,8.0,17.0,44,0.00,SCT,SCT,0.01,188.0,WeatherDisplay:10.37,2013-04-01 21:45:00,
2013-04-01 17:50:00,64.9,41.9,29.86,West,260,9.0,16.0,43,0.00,SCT,SCT,0.01,420.0,WeatherDisplay:10.37,2013-04-01 21:50:00,
2013-04-01 17:55:00,64.7,41.7,29.86,West,265,8.0,14.0,43,0.00,SCT,SCT,0.01,95.0,WeatherDisplay:10.37,2013-04-01 21:55:00,
2013-04-01 18:00:00,64.3,41.9,29.86,West,272,6.0,12.0,44,0.00,BKN,SCT,0.01,88.0,WeatherDisplay:10.37,2013-04-01 22:00:00,
2013-04-01 18:05:00,63.9,42.1,29.86,WNW,282,6.0,13.0,45,0.00,BKN,SCT,0.01,332.0,WeatherDisplay:10.37,2013-04-01 22:05:00,
2013-04-01 18:10:00,63.8,42.0,29.86,WNW,287,6.0,10.0,45,0.00,SCT,SCT,0.01,79.0,WeatherDisplay:10.37,2013-04-01 22:10:00,
2013-04-01 18:15:00,63.6,41.9,29.86,West,278,5.0,12.0,45,0.00,SCT,SCT,0.01,95.0,WeatherDisplay:10.37,2013-04-01 22:15:00,
2013-04-01 18:20:00,63.5,41.2,29.86,West,278,8.0,13.0,44,0.00,BKN,SCT,0.01,104.0,WeatherDisplay:10.37,2013-04-01 22:20:00,
2013-04-01 18:25:00,63.7,41.4,29.86,WNW,290,7.0,15.0,44,0.00,SCT,SCT,0.01,294.0,WeatherDisplay:10.37,2013-04-01 22:25:00,
2013-04-01 18:30:00,63.9,41.5,29.86,WNW,287,6.0,10.0,44,0.00,FEW,SCT,0.01,120.0,WeatherDisplay:10.37,2013-04-01 22:30:00,
2013-04-01 18:35:00,63.9,42.1,29.86,West,269,1.0,10.0,45,0.00,SCT,SCT,0.01,102.0,WeatherDisplay:10.37,2013-04-01 22:35:00,
2013-04-01 18:40:00,63.8,41.4,29.87,West,261,6.0,12.0,44,0.00,SCT,SCT,0.01,83.0,WeatherDisplay:10.37,2013-04-01 22:40:00,
2013-04-01 18:45:00,63.5,41.8,29.87,West,271,5.0,9.0,45,0.00,BKN,SCT,0.01,72.0,WeatherDisplay:10.37,2013-04-01 22:45:00,
2013-04-01 18:50:00,63.3,41.6,29.87,West,278,5.0,10.0,45,0.00,BKN,SCT,0.01,60.0,WeatherDisplay:10.37,2013-04-01 22:50:00,
2013-04-01 18:55:00,63.1,41.4,29.87,WNW,287,7.0,10.0,45,0.00,BKN,SCT,0.01,51.0,WeatherDisplay:10.37,2013-04-01 22:55:00,
2013-04-01 19:00:00,62.9,41.8,29.87,WNW,282,5.0,12.0,46,0.00,BKN,SCT,0.01,46.0,WeatherDisplay:10.37,2013-04-01 23:00:00,
2013-04-01 19:05:00,62.6,42.1,29.87,West,270,3.0,8.0,47,0.00,SCT,SCT,0.01,49.0,WeatherDisplay:10.37,2013-04-01 23:05:00,
2013-04-01 19:10:00,62.5,41.4,29.87,West,267,6.0,9.0,46,0.00,BKN,SCT,0.01,32.0,WeatherDisplay:10.37,2013-04-01 23:10:00,
2013-04-01 19:15:00,62.3,41.8,29.87,West,266,2.0,7.0,47,0.00,CLR,SCT,0.01,79.0,WeatherDisplay:10.37,2013-04-01 23:15:00,
2013-04-01 19:20:00,62.3,41.8,29.88,West,272,5.0,12.0,47,0.00,CLR,SCT,0.01,74.0,WeatherDisplay:10.37,2013-04-01 23:20:00,
2013-04-01 19:25:00,62.3,41.2,29.88,West,274,5.0,13.0,46,0.00,FEW,SCT,0.01,49.0,WeatherDisplay:10.37,2013-04-01 23:25:00,
2013-04-01 19:30:00,62.2,41.2,29.88,WNW,282,3.0,7.0,46,0.00,FEW,SCT,0.01,26.0,WeatherDisplay:10.37,2013-04-01 23:30:00,
2013-04-01 19:35:00,62.1,42.2,29.88,WNW,291,3.0,6.0,48,0.00,FEW,SCT,0.01,14.0,WeatherDisplay:10.37,2013-04-01 23:35:00,
2013-04-01 19:40:00,61.7,41.8,29.88,WNW,291,1.0,7.0,48,0.00,FEW,SCT,0.01,7.0,WeatherDisplay:10.37,2013-04-01 23:40:00,
2013-04-01 19:45:00,61.4,41.0,29.88,WNW,287,3.0,7.0,47,0.00,FEW,SCT,0.01,5.0,WeatherDisplay:10.37,2013-04-01 23:45:00,
2013-04-01 19:50:00,61.1,41.2,29.89,WNW,285,2.0,6.0,48,0.00,FEW,SCT,0.01,0.0,WeatherDisplay:10.37,2013-04-01 23:50:00,
2013-04-01 19:55:00,60.7,41.4,29.89,WNW,286,2.0,6.0,49,0.00,FEW,SCT,0.01,0.0,WeatherDisplay:10.37,2013-04-01 23:55:00,
2013-04-01 20:00:00,60.4,41.1,29.89,WNW,287,3.0,10.0,49,0.00,FEW,SCT,0.01,0.0,WeatherDisplay:10.37,2013-04-02 00:00:00,
2013-04-01 20:05:00,60.1,40.9,29.89,WNW,284,3.0,9.0,49,0.00,FEW,SCT,0.01,0.0,WeatherDisplay:10.37,2013-04-02 00:05:00,
2013-04-01 20:10:00,59.9,40.7,29.89,WNW,285,3.0,7.0,49,0.00,FEW,SCT,0.01,0.0,WeatherDisplay:10.37,2013-04-02 00:10:00,
2013-04-01 20:15:00,59.7,40.5,29.89,WNW,288,2.0,5.0,49,0.00,FEW,SCT,0.01,0.0,WeatherDisplay:10.37,2013-04-02 00:15:00,
2013-04-01 20:25:00,59.2,40.5,29.89,WNW,289,2.0,5.0,50,0.00,FEW,SCT,0.01,0.0,WeatherDisplay:10.37,2013-04-02 00:25:00,
2013-04-01 20:30:00,59.0,40.4,29.90,WNW,289,1.0,6.0,50,0.00,FEW,SCT,0.01,0.0,WeatherDisplay:10.37,2013-04-02 00:30:00,
2013-04-01 20:35:00,59.0,39.9,29.90,West,278,5.0,7.0,49,0.00,FEW,SCT,0.01,0.0,WeatherDisplay:10.37,2013-04-02 00:35:00,
2013-04-01 20:45:00,58.9,39.8,29.90,West,277,2.0,8.0,49,0.00,FEW,SCT,0.01,0.0,WeatherDisplay:10.37,2013-04-02 00:45:00,
2013-04-01 20:50:00,58.7,39.6,29.90,West,280,0.0,3.0,49,0.00,FEW,SCT,0.01,0.0,WeatherDisplay:10.37,2013-04-02 00:50:00,
2013-04-01 20:55:00,58.6,39.5,29.90,West,279,0.0,1.0,49,0.00,FEW,SCT,0.01,0.0,WeatherDisplay:10.37,2013-04-02 00:55:00,
2013-04-01 21:00:00,58.4,39.3,29.91,West,279,0.0,2.0,49,0.00,FEW,SCT,0.01,0.0,WeatherDisplay:10.37,2013-04-02 01:00:00,
2013-04-01 21:05:00,58.2,39.1,29.91,West,279,0.0,0.0,49,0.00,FEW,SCT,0.01,0.0,WeatherDisplay:10.37,2013-04-02 01:05:00,
2013-04-01 21:10:00,58.0,39.5,29.91,West,279,0.0,0.0,50,0.00,FEW,SCT,0.01,0.0,WeatherDisplay:10.37,2013-04-02 01:10:00,
2013-04-01 21:15:00,56.8,39.4,29.91,West,279,0.0,3.0,52,0.00,FEW,SCT,0.01,0.0,WeatherDisplay:10.37,2013-04-02 01:15:00,
2013-04-01 21:20:00,55.8,39.9,29.91,West,279,0.0,1.0,55,0.00,FEW,SCT,0.01,0.0,WeatherDisplay:10.37,2013-04-02 01:20:00,
2013-04-01 21:25:00,54.9,39.5,29.91,West,279,0.0,0.0,56,0.00,FEW,SCT,0.01,0.0,WeatherDisplay:10.37,2013-04-02 01:25:00,
2013-04-01 21:30:00,54.3,38.9,29.92,West,279,0.0,0.0,56,0.00,FEW,SCT,0.01,0.0,WeatherDisplay:10.37,2013-04-02 01:30:00,
2013-04-01 21:35:00,54.0,39.1,29.92,West,279,0.0,1.0,57,0.00,FEW,SCT,0.01,0.0,WeatherDisplay:10.37,2013-04-02 01:35:00,
2013-04-01 21:40:00,53.5,38.6,29.92,West,279,0.0,1.0,57,0.00,FEW,SCT,0.01,0.0,WeatherDisplay:10.37,2013-04-02 01:40:00,
2013-04-01 21:45:00,53.0,39.1,29.92,West,279,0.0,1.0,59,0.00,FEW,SCT,0.01,0.0,WeatherDisplay:10.37,2013-04-02 01:45:00,
2013-04-01 21:50:00,52.4,38.9,29.92,West,279,0.0,1.0,60,0.00,FEW,SCT,0.01,0.0,WeatherDisplay:10.37,2013-04-02 01:50:00,
2013-04-01 21:55:00,51.9,38.5,29.93,West,279,1.0,2.0,60,0.00,FEW,SCT,0.01,0.0,WeatherDisplay:10.37,2013-04-02 01:55:00,
2013-04-01 22:00:00,51.5,38.1,29.93,West,279,0.0,2.0,60,0.00,FEW,SCT,0.01,0.0,WeatherDisplay:10.37,2013-04-02 02:00:00,
2013-04-01 22:05:00,51.3,38.3,29.93,West,279,1.0,3.0,61,0.00,FEW,SCT,0.01,0.0,WeatherDisplay:10.37,2013-04-02 02:05:00,
2013-04-01 22:15:00,51.1,37.7,29.93,West,281,1.0,7.0,60,0.00,FEW,SCT,0.01,0.0,WeatherDisplay:10.37,2013-04-02 02:15:00,
2013-04-01 22:25:00,52.7,36.9,29.93,WNW,287,2.0,8.0,55,0.00,FEW,SCT,0.01,0.0,WeatherDisplay:10.37,2013-04-02 02:25:00,
2013-04-01 22:30:00,53.3,37.0,29.93,WNW,287,1.0,6.0,54,0.00,FEW,SCT,0.01,0.0,WeatherDisplay:10.37,2013-04-02 02:30:00,
2013-04-01 22:35:00,53.5,36.8,29.94,WNW,286,0.0,4.0,53,0.00,FEW,SCT,0.01,0.0,WeatherDisplay:10.37,2013-04-02 02:35:00,
2013-04-01 22:40:00,53.7,37.0,29.94,WNW,286,0.0,1.0,53,0.00,FEW,SCT,0.01,0.0,WeatherDisplay:10.37,2013-04-02 02:40:00,
2013-04-01 22:45:00,53.7,37.9,29.94,WNW,286,1.0,3.0,55,0.00,FEW,SCT,0.01,0.0,WeatherDisplay:10.37,2013-04-02 02:45:00,
2013-04-01 22:50:00,53.0,38.2,29.94,WNW,286,0.0,2.0,57,0.00,FEW,SCT,0.01,0.0,WeatherDisplay:10.37,2013-04-02 02:50:00,
2013-04-01 22:55:00,52.5,38.1,29.94,WNW,286,0.0,1.0,58,0.00,FEW,SCT,0.01,0.0,WeatherDisplay:10.37,2013-04-02 02:55:00,
2013-04-01 23:00:00,52.0,36.8,29.95,WNW,286,0.0,4.0,56,0.00,FEW,SCT,0.01,0.0,WeatherDisplay:10.37,2013-04-02 03:00:00,
2013-04-01 23:10:00,51.8,36.1,29.94,WNW,286,0.0,3.0,55,0.00,FEW,SCT,0.01,0.0,WeatherDisplay:10.37,2013-04-02 03:10:00,
2013-04-01 23:15:00,51.8,36.1,29.94,WNW,286,0.0,2.0,55,0.00,FEW,SCT,0.01,0.0,WeatherDisplay:10.37,2013-04-02 03:15:00,
2013-04-01 23:20:00,51.8,35.7,29.95,WNW,286,0.0,2.0,54,0.00,FEW,SCT,0.01,0.0,WeatherDisplay:10.37,2013-04-02 03:20:00,
2013-04-01 23:25:00,51.8,36.1,29.95,WNW,286,0.0,1.0,55,0.00,FEW,SCT,0.01,0.0,WeatherDisplay:10.37,2013-04-02 03:25:00,
2013-04-01 23:30:00,51.8,35.7,29.95,WNW,286,0.0,0.0,54,0.00,FEW,SCT,0.01,0.0,WeatherDisplay:10.37,2013-04-02 03:30:00,
2013-04-01 23:35:00,51.7,36.0,29.95,WNW,286,0.0,0.0,55,0.00,FEW,SCT,0.01,0.0,WeatherDisplay:10.37,2013-04-02 03:35:00,
2013-04-01 23:40:00,51.6,35.9,29.95,WNW,286,0.0,1.0,55,0.00,FEW,SCT,0.01,0.0,WeatherDisplay:10.37,2013-04-02 03:40:00,
2013-04-01 23:45:00,51.4,36.7,29.95,WNW,286,0.0,1.0,57,0.00,FEW,SCT,0.01,0.0,WeatherDisplay:10.37,2013-04-02 03:45:00,
2013-04-01 23:50:00,51.1,35.9,29.95,WNW,286,0.0,3.0,56,0.00,FEW,SCT,0.01,0.0,WeatherDisplay:10.37,2013-04-02 03:50:00,
2013-04-01 23:55:00,50.8,35.2,29.96,WNW,286,2.0,5.0,55,0.00,FEW,SCT,0.01,0.0,WeatherDisplay:10.37,2013-04-02 03:55:00,